Wind_Gust
6 5 5 6 6 7 7 11 10 9 7 10 11 9 7 8 9 11 10 7 10 6 6 7 16 24 17 14 13 12 9 23 12 23 14 11 10 19 15 19 20 21 20 20 18 20 20 16 16 19 19 20 19 17 19 20 21 20 19 18 18 17 17 17 18 19 18 17 17 17 17 17 17 16 16 16 15 14 13 15 15 16 16 16 16 15 14 14 15 16 16 17 18 17 17 17 17
5 5 6 6 6 8 9 8 10 6 9 7 12 8 7 7 8 11 8 5 7 10 9 15 16 17 14 20 19 18 14 13 8 9 8 11 18 17 16 18 20 20 20 19 18 18 18 19 16 17 19 20 18 18 18 20 20 20 19 18 17 16 17 17 17 17 17 16 16 16 16 15 15 16 15 15 13 14 11 13 15 16 16 16 16 16 15 14 15 16 17 17 17 18 17 17 17
5 5 8 6 8 9 11 9 11 6 8 10 9 12 8 11 11 11 10 8 11 13 10 14 16 12 12 13 14 8 11 6 10 10 14 17 22 15 16 16 19 19 19 18 17 16 16 17 13 16 19 20 18 18 19 19 19 20 19 18 17 17 17 17 17 16 16 15 16 15 15 14 14 14 14 13 12 11 11 11 14 15 16 16 17 16 16 15 15 16 16 16 17 18 18 18 17
5 6 8 7 9 8 8 8 7 12 9 8 10 7 8 10 12 12 9 9 13 6 6 9 10 7 9 12 11 12 13 13 9 15 20 23 18 19 18 18 18 19 18 17 17 15 14 16 15 13 17 19 20 18 17 18 19 20 19 19 18 17 15 15 16 15 14 14 14 14 14 14 14 14 13 12 11 10 11 11 12 14 14 15 16 16 17 16 16 15 16 16 17 18 18 17 17
5 5 6 7 10 8 9 7 7 7 12 13 8 8 8 8 9 8 10 10 7 8 6 7 13 10 10 14 6 9 11 11 13 11 22 15 17 18 19 18 19 19 18 16 14 14 13 14 14 13 15 17 18 17 17 17 17 17 18 18 18 17 15 15 15 15 15 14 14 14 14 13 13 13 13 12 10 11 11 12 13 13 12 13 14 14 15 15 15 16 16 16 17 18 18 18 18
7 5 6 7 7 9 14 11 9 10 9 10 8 9 6 7 8 10 9 7 6 6 7 6 8 14 11 11 8 12 14 13 14 13 19 18 20 19 20 17 19 19 17 15 14 13 14 12 11 11 15 15 16 15 16 16 16 17 17 18 18 18 16 15 15 15 15 14 13 13 13 13 12 12 12 12 11 11 11 12 14 13 13 14 14 15 15 15 15 15 16 18 18 18 18 18 17
7 8 10 10 10 10 9 7 7 8 8 11 8 9 6 7 7 6 7 7 7 9 9 9 11 16 17 14 16 13 8 9 19 17 13 20 19 19 18 18 19 19 17 16 15 14 14 10 11 9 15 17 15 9 15 16 15 15 16 16 17 17 16 15 15 15 14 14 13 13 13 13 13 13 13 13 10 10 11 12 13 12 14 15 15 15 15 15 15 15 16 18 20 18 18 16 14
6 9 6 9 9 8 7 6 7 10 8 13 8 11 11 9 7 7 6 6 9 6 8 10 11 7 11 7 11 9 11 8 14 17 21 21 20 19 18 18 20 18 17 16 14 14 13 9 10 11 16 23 19 12 6 16 16 16 16 15 16 16 16 15 15 14 13 14 14 13 13 13 14 13 13 13 12 11 12 13 13 12 13 16 16 16 15 15 16 17 17 18 20 19 17 16 14
7 10 7 9 9 8 8 7 7 7 16 10 15 14 10 11 12 10 9 5 6 7 9 9 10 9 11 11 11 6 11 13 18 18 20 21 20 19 19 17 20 19 17 17 15 14 13 10 8 8 15 21 21 15 11 14 13 13 15 15 14 12 12 13 14 14 13 11 11 12 13 12 13 14 14 14 14 12 10 13 11 11 13 16 17 17 17 16 17 18 18 19 19 19 17 15 13
8 9 8 9 8 11 6 8 8 9 11 12 12 11 10 11 12 11 12 11 7 10 9 8 10 12 12 14 16 9 13 15 20 19 19 20 20 18 18 18 19 20 18 17 15 15 14 13 7 7 12 20 21 17 16 15 11 12 12 13 13 12 12 12 12 13 13 11 10 10 10 10 11 14 16 17 15 13 14 13 11 10 12 15 17 18 17 18 18 18 18 19 18 17 17 15 13
7 11 7 10 7 9 12 6 9 9 12 13 15 15 18 11 10 11 11 10 7 8 10 6 13 14 10 10 11 7 12 17 19 20 19 19 19 18 19 17 18 17 19 16 16 16 16 14 14 10 11 18 20 22 17 14 13 14 11 10 11 13 12 12 11 12 12 11 9 9 10 10 12 14 15 15 13 12 13 13 11 9 10 13 14 17 18 18 17 17 17 18 18 16 14 13 13
8 6 7 7 9 9 7 8 7 11 12 10 14 7 8 11 10 10 13 16 10 9 13 13 15 14 12 9 12 11 15 15 18 18 18 18 19 18 18 18 17 17 18 18 17 16 16 16 16 17 15 15 19 20 17 15 15 15 13 10 10 11 11 12 12 11 11 10 10 9 10 11 12 13 13 13 11 11 12 12 12 10 10 13 14 15 16 16 16 16 15 15 16 15 14 13 13
7 6 9 9 6 8 9 7 8 9 11 10 11 9 10 11 12 13 13 17 13 14 12 10 19 9 12 9 12 12 15 17 18 19 19 19 19 19 17 19 18 18 18 17 18 17 16 16 17 16 17 18 16 18 15 16 15 14 12 11 9 10 12 11 11 11 10 10 10 10 10 10 11 12 13 12 12 10 11 12 13 11 8 11 14 14 15 15 16 15 14 14 13 14 15 14 13
8 11 11 10 7 8 9 7 6 10 9 7 9 8 7 7 11 13 11 13 15 19 9 18 20 14 13 14 11 15 18 17 19 19 19 19 19 19 18 19 17 18 17 17 17 17 16 16 17 16 16 16 16 16 14 18 15 12 12 10 5 9 9 10 9 9 9 10 11 12 11 11 12 14 15 15 14 14 12 13 13 12 10 9 12 14 14 14 14 15 15 14 13 12 12 14 13
7 7 9 8 8 7 8 11 7 8 8 7 7 11 12 9 6 8 17 17 15 9 14 10 14 18 18 20 17 22 22 21 19 19 20 18 18 18 18 18 17 17 16 16 16 16 16 16 16 15 13 13 13 14 14 17 14 13 13 14 11 11 7 8 8 8 11 10 11 10 12 12 13 14 16 18 15 16 15 13 12 12 11 9 9 12 12 14 14 13 15 16 15 12 11 10 11
10 10 8 8 7 8 9 11 7 7 13 8 6 7 6 8 7 9 12 9 16 8 18 20 7 8 12 19 10 24 23 22 20 20 20 19 17 16 18 17 16 16 15 15 14 14 15 15 14 14 13 13 12 11 13 13 12 12 17 17 17 14 14 11 11 7 12 11 13 12 11 14 13 16 18 20 17 15 13 14 14 13 12 11 8 9 12 12 13 13 13 14 15 14 11 9 7
6 8 8 7 10 10 9 11 12 10 10 10 7 11 15 9 6 6 8 13 25 17 8 9 13 7 11 13 17 24 23 19 18 21 20 19 17 14 16 16 16 15 14 12 12 13 14 15 14 14 13 13 12 11 12 11 12 12 11 14 17 15 11 12 8 8 8 10 11 9 9 13 13 13 16 15 15 18 10 11 13 14 12 11 10 8 11 12 13 14 13 12 13 15 13 10 7
6 6 9 8 7 11 11 12 14 7 11 15 13 8 11 7 8 8 11 13 16 13 11 8 12 10 10 14 24 25 23 22 22 22 22 21 19 17 15 16 16 15 14 13 11 11 13 14 15 14 13 12 12 11 9 10 12 9 11 12 13 16 13 12 12 12 10 12 8 11 13 13 14 13 12 10 13 15 16 12 13 12 12 11 10 8 7 10 13 13 15 13 12 13 13 15 11
8 8 7 12 12 12 10 9 8 10 15 13 15 8 8 9 12 10 13 17 20 19 10 9 15 15 18 22 25 26 23 21 22 21 23 21 21 19 17 16 15 15 14 12 10 9 10 12 12 14 14 13 12 12 11 11 10 10 11 13 14 11 14 13 13 12 11 12 11 12 9 12 13 14 13 12 11 8 13 13 13 12 12 12 11 9 7 7 9 13 14 15 13 11 11 11 11
6 8 9 12 12 10 10 9 12 11 13 18 16 11 7 6 7 8 12 14 15 23 25 13 16 18 22 24 26 26 23 23 22 23 22 21 19 20 19 17 16 15 14 13 11 8 9 9 10 11 12 13 13 12 11 11 10 10 11 12 12 13 13 13 10 9 11 9 9 9 9 11 12 12 9 9 10 12 13 12 12 12 12 11 11 9 8 7 10 12 14 16 11 7 8 9 11
8 8 13 8 8 9 9 9 14 13 9 11 10 11 8 5 6 9 17 18 11 10 14 24 24 25 26 26 27 26 25 24 24 22 21 20 17 16 19 18 18 17 15 13 10 9 10 9 10 10 10 11 12 12 12 12 10 10 9 11 11 12 13 12 11 11 11 10 9 8 10 9 11 10 9 10 11 8 8 12 13 13 13 13 11 11 11 13 11 12 15 12 10 10 9 8 7
12 12 8 9 8 11 15 12 9 9 6 7 6 11 9 9 7 12 21 21 22 17 18 10 16 28 31 30 28 27 26 26 24 23 23 21 22 20 16 15 14 15 15 14 14 12 12 11 10 11 11 10 10 10 10 12 11 10 9 9 9 11 12 12 11 12 10 11 10 11 9 9 9 10 10 9 9 8 11 12 11 11 12 12 12 11 11 10 10 9 10 10 10 9 9 8 7
14 8 9 10 10 14 8 8 7 7 9 11 12 7 7 7 7 12 16 7 10 7 8 10 16 26 32 32 31 29 28 27 24 24 23 22 22 17 17 14 17 17 15 14 14 13 12 12 12 12 12 11 10 11 11 10 9 9 10 10 10 10 11 12 12 13 13 12 11 12 11 10 10 9 10 10 10 7 11 12 12 13 13 12 11 11 10 9 9 10 10 9 9 10 9 9 7
9 12 6 10 10 14 12 13 5 8 6 16 7 6 11 8 10 9 11 7 7 10 9 17 19 21 23 28 27 30 27 25 23 20 20 22 21 18 16 15 15 14 15 15 15 14 13 14 13 13 12 12 12 12 11 10 10 11 11 11 11 11 10 10 9 10 12 12 13 15 13 13 12 11 12 11 10 12 11 11 11 11 12 11 9 10 11 10 9 9 9 11 10 9 10 9 8
8 10 7 9 6 12 13 12 11 7 12 15 8 9 9 8 8 13 15 8 7 8 14 22 22 22 21 21 25 24 22 21 20 18 15 15 15 14 13 15 17 17 16 15 13 13 13 11 11 12 11 10 11 12 11 10 10 10 10 11 11 11 11 10 10 10 10 11 12 12 12 13 12 12 13 12 10 11 10 11 11 11 11 11 11 11 10 11 10 10 8 9 8 9 9 9 9
13 12 5 8 12 12 10 12 11 12 11 7 8 7 6 5 6 8 6 6 6 11 16 23 23 24 22 22 19 21 24 22 21 18 18 15 15 17 16 17 18 17 15 14 13 12 11 11 12 11 10 10 11 11 10 10 10 11 11 10 12 11 10 9 9 10 9 10 12 12 12 12 12 14 12 12 12 11 11 13 12 11 12 11 10 11 11 10 11 11 9 7 9 9 9 9 8
8 9 10 14 15 11 8 7 7 6 8 7 9 7 8 8 7 8 8 7 11 14 16 18 24 25 23 21 20 21 24 23 23 20 15 14 16 18 16 14 17 15 12 14 13 12 9 11 12 11 11 10 10 10 9 9 9 9 9 8 9 9 10 8 6 8 9 8 9 12 13 14 13 12 12 13 10 9 8 9 11 10 11 11 11 12 12 11 10 10 11 10 9 9 8 8 8
7 9 10 11 11 7 10 10 9 5 6 7 5 6 5 7 5 7 6 6 10 18 17 17 18 22 25 22 23 22 22 19 17 18 21 21 22 21 18 19 16 14 15 15 13 10 10 10 12 11 11 11 10 10 10 10 9 9 8 7 7 8 8 11 9 8 7 6 7 10 12 12 12 11 11 12 11 11 11 11 10 10 10 12 13 14 12 10 8 9 8 7 6 5 7 8 7
6 5 12 12 11 8 10 8 8 7 8 6 6 8 5 6 6 8 6 8 10 16 17 16 16 17 19 21 20 17 18 18 16 19 19 16 14 14 17 14 17 16 12 11 11 11 12 10 10 12 12 10 10 9 9 8 9 9 9 8 8 7 7 10 13 9 6 6 6 7 9 10 9 11 9 7 8 10 13 12 10 11 16 14 12 12 11 9 9 8 8 8 7 6 6 7 8
5 8 7 11 12 8 15 7 6 7 5 6 6 8 9 11 8 7 6 12 13 16 16 15 15 15 17 16 17 17 14 16 18 17 15 15 14 13 15 14 13 13 14 11 10 12 10 9 9 13 12 13 10 9 8 8 8 10 10 9 10 9 8 8 8 8 8 7 6 6 5 7 7 7 9 7 8 11 11 10 11 16 18 11 9 11 14 12 12 10 10 9 8 9 7 6 7
8 8 9 8 8 8 12 11 13 9 7 6 6 8 10 10 10 8 7 10 19 18 16 17 16 16 17 16 17 18 17 16 14 12 11 11 12 13 13 13 14 12 11 11 15 14 11 11 11 12 11 11 10 10 10 10 9 11 12 11 9 8 10 9 8 9 9 11 9 8 7 7 7 9 9 14 11 11 16 17 15 14 10 11 12 9 12 14 12 13 12 11 10 9 9 8 5
8 7 7 8 7 8 12 8 13 12 7 8 10 7 12 11 11 8 7 8 11 17 17 18 18 18 18 18 18 17 15 12 10 13 12 12 12 14 15 16 15 14 16 14 12 11 11 10 11 12 11 11 10 10 9 9 10 9 10 8 9 7 9 10 9 10 10 9 9 10 9 9 8 8 9 12 12 14 11 11 12 13 12 12 12 12 10 12 12 12 13 12 12 10 9 7 6
10 8 4 5 6 7 8 10 7 7 7 8 7 10 10 7 11 8 7 8 10 14 17 16 16 16 17 18 17 15 13 14 14 16 15 14 13 14 14 16 18 16 14 14 14 13 12 11 11 12 13 13 11 10 10 10 9 9 9 9 8 8 9 9 9 9 10 10 10 12 10 9 10 8 7 8 8 7 7 10 8 9 11 14 13 11 12 9 9 13 11 11 12 11 9 9 8
6 8 7 5 7 8 8 13 11 12 10 6 11 8 11 7 11 9 6 6 12 14 16 16 17 18 19 18 17 17 16 16 21 21 18 15 15 14 12 11 12 12 10 10 11 14 15 14 12 10 11 11 11 11 10 10 10 10 10 10 9 10 9 9 9 10 11 11 12 14 13 12 11 10 9 9 9 8 8 9 8 10 7 6 11 11 12 12 13 15 15 11 12 10 12 11 9
6 8 6 7 6 7 9 8 10 12 10 6 7 7 14 9 10 7 9 6 11 12 13 15 17 16 17 17 17 17 17 18 20 12 10 12 12 12 12 12 11 11 10 11 11 11 13 13 12 11 11 11 10 10 11 11 11 11 11 11 11 10 10 10 9 11 11 12 13 13 13 12 11 10 10 10 10 9 9 8 8 7 8 7 9 10 8 13 17 14 13 12 11 13 13 11 9
6 10 7 6 4 8 6 7 7 10 7 6 6 8 10 11 10 8 8 7 11 10 9 9 11 12 13 15 16 16 17 19 9 8 10 12 13 12 11 11 10 10 10 11 11 13 13 13 12 11 10 11 11 11 12 12 11 11 13 11 12 10 10 11 10 11 10 13 12 13 13 10 11 10 10 10 9 9 10 9 9 9 11 14 9 9 9 10 11 13 14 13 11 9 11 12 10
9 9 9 7 6 8 9 7 6 7 6 6 6 7 7 12 12 10 6 8 10 12 13 13 14 16 17 18 19 19 18 17 8 9 12 13 13 12 10 10 11 10 10 12 13 14 15 17 16 14 11 10 12 13 12 14 13 12 9 10 12 10 12 11 10 9 11 11 11 13 12 12 11 10 9 10 11 9 9 10 9 8 8 8 10 11 12 9 9 10 10 11 12 11 12 14 12
7 9 8 8 7 6 7 6 8 8 6 7 6 7 9 10 9 10 8 7 12 15 14 15 17 18 18 19 21 22 18 8 10 10 11 14 16 13 12 13 13 17 16 14 15 16 14 14 15 15 12 11 10 11 11 9 8 10 11 11 12 12 13 13 12 11 10 10 10 10 10 10 10 10 10 11 11 11 11 12 11 9 8 7 9 10 11 12 11 11 8 8 12 14 14 11 9
6 8 7 6 8 11 12 6 6 7 6 7 7 9 10 9 9 8 9 10 10 10 13 17 20 18 20 21 20 17 12 16 14 14 12 16 15 15 15 14 15 15 14 16 13 13 13 14 13 14 13 12 11 10 11 10 7 7 8 11 11 11 8 7 9 10 10 12 10 10 10 9 10 11 11 12 11 12 12 12 12 13 11 11 12 13 11 10 9 9 10 10 14 10 11 10 9
8 7 9 9 6 6 7 6 6 9 9 8 7 10 12 11 10 10 11 10 10 8 7 9 10 18 21 25 24 21 19 17 19 20 18 17 18 17 16 16 17 15 15 14 14 15 14 14 14 15 15 12 12 10 9 9 10 11 12 11 8 7 10 9 9 8 10 11 12 11 11 9 10 11 11 13 13 12 11 12 12 13 13 12 14 16 14 13 10 9 7 7 9 12 10 10 9
4 6 5 6 6 7 9 7 9 6 7 5 9 11 11 8 9 9 10 8 10 8 10 10 10 13 13 9 10 17 22 22 21 17 16 18 20 23 24 19 17 19 18 18 17 17 16 18 17 17 16 15 12 12 11 12 14 13 13 12 11 12 10 9 10 10 9 10 11 11 10 9 10 11 11 12 14 13 12 12 13 13 13 12 14 15 16 15 14 13 12 10 8 9 10 10 7
6 11 13 10 6 8 7 6 6 11 6 13 10 16 8 9 10 9 9 12 7 8 8 10 10 8 10 16 19 16 15 13 18 23 25 25 25 20 17 19 21 20 20 18 16 17 16 16 16 15 14 14 14 13 13 14 14 14 15 13 12 9 10 10 11 11 11 10 11 9 10 9 11 11 12 13 13 14 13 13 12 14 13 13 14 15 14 15 15 15 14 12 13 11 10 14 12
6 9 12 9 9 7 7 6 6 8 11 9 7 9 15 11 8 7 9 10 13 10 9 7 7 8 10 15 14 15 19 19 17 17 18 19 19 20 22 23 25 23 20 17 16 17 17 16 17 17 16 15 14 14 14 14 13 13 14 13 12 13 12 9 6 6 9 10 10 10 11 9 11 13 11 12 12 12 12 13 13 14 15 14 13 15 16 15 16 16 13 15 15 13 11 13 12
11 5 11 12 12 9 8 7 6 5 5 6 8 8 12 13 10 7 7 10 10 12 12 12 9 7 10 12 13 15 18 18 19 21 23 22 22 25 27 27 24 23 18 19 17 17 18 17 16 16 14 14 14 14 15 14 16 14 13 11 10 10 8 8 9 9 7 9 11 11 12 11 11 12 13 12 12 13 13 13 14 14 16 15 16 17 16 14 15 16 15 14 15 17 15 14 12
7 6 7 11 8 7 10 7 7 5 6 12 7 6 10 10 12 7 9 8 12 11 15 18 17 12 9 13 17 17 17 19 21 21 22 22 24 24 23 22 20 17 20 21 21 18 15 16 17 15 16 15 14 15 15 14 13 14 15 13 12 8 7 6 8 9 11 10 11 10 11 12 12 10 12 12 12 14 13 14 14 15 15 15 16 17 16 17 16 15 15 16 16 15 15 14 14
6 11 14 13 13 13 8 8 8 5 8 13 8 6 15 15 10 9 7 7 11 13 19 18 16 18 16 14 14 16 19 19 17 22 21 22 22 20 15 12 14 16 15 14 14 16 17 17 18 18 18 17 15 16 14 14 13 13 13 12 12 11 9 9 8 11 10 10 12 10 11 12 13 12 11 12 13 14 14 14 16 17 16 16 17 18 17 18 17 18 17 16 15 15 14 15 15
13 8 14 12 13 8 8 11 6 6 7 15 8 8 8 19 6 8 9 9 11 17 15 15 18 20 22 21 18 18 17 16 17 17 18 16 11 12 15 19 17 14 15 17 18 19 17 17 18 19 19 17 16 17 15 15 14 13 14 14 13 12 11 11 12 11 11 11 13 12 11 12 12 13 12 12 12 13 13 14 15 16 16 16 18 18 17 18 17 17 17 17 18 17 16 15 15
10 8 9 11 9 10 8 8 9 8 12 8 8 6 6 15 8 8 8 11 10 12 14 17 20 21 23 22 23 21 17 15 14 15 16 16 14 16 17 18 19 19 18 19 18 17 17 16 17 19 19 18 17 16 15 14 15 14 12 13 14 13 14 14 15 15 15 15 13 14 12 12 12 12 12 13 12 12 13 13 13 15 16 16 17 17 17 18 17 17 17 16 17 16 16 16 16
10 10 11 10 8 9 7 9 8 14 14 8 8 6 7 18 10 11 10 9 10 9 12 15 17 20 20 21 22 20 16 13 10 11 13 15 18 18 19 18 17 20 22 22 22 18 15 15 20 21 21 18 18 17 17 16 14 15 15 14 14 13 14 14 15 14 14 14 15 14 14 15 14 14 13 14 13 12 13 13 13 15 16 16 17 18 17 18 18 17 17 17 17 16 17 16 17
10 13 9 12 11 7 8 8 6 12 11 8 6 5 13 8 9 6 9 10 10 11 12 13 14 16 18 19 19 19 17 13 8 8 10 12 13 13 11 14 14 14 14 16 15 16 17 17 17 20 20 19 18 18 18 17 16 15 14 14 14 14 15 14 14 14 15 14 15 16 16 16 17 16 16 15 15 14 12 13 13 14 15 16 16 16 16 16 17 18 17 17 16 16 16 15 16
12 7 16 14 14 17 10 14 14 13 8 6 5 7 10 6 10 8 8 10 10 11 12 12 12 12 12 13 16 18 16 17 13 10 8 10 11 12 13 13 11 12 14 16 16 16 14 14 16 18 17 18 18 19 17 17 17 15 14 14 14 13 14 14 14 13 14 15 14 15 14 14 15 15 16 15 15 14 13 14 14 15 14 15 15 15 15 16 16 16 16 15 15 15 15 14 14
6 7 10 12 15 14 20 7 10 8 8 7 10 11 5 7 10 9 7 8 10 11 11 11 14 14 14 16 19 19 20 20 18 14 12 10 9 11 13 14 14 14 15 14 16 16 17 17 14 14 14 13 14 13 14 15 14 13 12 14 14 13 12 11 11 10 11 12 14 15 15 14 14 14 13 14 14 14 15 15 14 14 14 14 15 15 15 16 15 15 15 14 14 12 13 13 12
11 10 15 10 10 16 14 5 8 4 7 13 6 11 9 11 8 6 8 9 9 9 12 14 16 16 15 18 19 20 20 21 20 19 16 12 8 9 13 14 15 16 16 17 17 17 16 15 14 14 15 12 15 15 14 12 9 9 11 11 11 12 13 14 14 13 13 11 11 12 13 13 11 12 13 14 16 14 15 15 15 15 14 14 14 14 15 15 15 14 14 13 13 12 12 12 11
18 13 13 11 7 10 12 13 7 5 13 15 7 8 9 13 12 11 9 8 9 11 12 12 13 15 18 17 18 20 20 19 20 21 20 17 14 12 9 8 13 14 14 15 16 14 14 14 14 15 16 18 16 16 15 14 15 15 14 14 13 13 12 12 11 12 12 13 12 11 10 10 13 12 12 13 15 15 15 15 16 16 15 14 14 14 14 14 14 15 13 13 12 11 11 11 10
9 7 10 14 10 9 6 12 7 9 11 13 8 6 11 15 13 16 14 10 8 9 10 10 14 16 15 15 17 18 19 19 21 21 22 22 20 19 15 11 9 8 11 13 15 16 16 16 17 18 19 18 16 14 14 15 15 14 16 18 19 18 16 14 13 11 11 13 15 14 14 13 12 12 13 13 14 15 15 15 15 16 16 15 13 13 13 12 13 14 13 13 11 10 11 10 10
8 8 12 7 9 6 13 14 10 12 8 5 7 9 16 16 13 20 15 10 7 6 6 9 9 10 11 13 15 17 18 18 19 20 20 19 20 21 19 17 15 12 9 7 9 12 16 16 16 16 14 14 15 16 16 16 16 16 17 17 15 16 17 18 16 15 16 16 17 16 16 14 15 15 15 15 16 16 16 16 15 16 16 15 14 13 12 12 12 13 12 11 11 9 10 10 10
8 10 7 8 7 7 10 9 10 12 13 11 10 10 14 8 10 14 14 11 9 7 6 6 8 8 8 10 12 13 16 16 18 18 18 18 17 19 20 19 19 17 14 13 11 8 8 9 13 15 16 16 16 15 16 17 17 18 18 15 16 20 18 17 17 17 18 17 16 16 17 16 16 17 16 17 17 18 19 18 18 17 17 16 15 14 13 13 13 13 12 11 10 9 10 10 9
6 7 9 9 11 13 12 15 9 9 16 15 13 18 9 8 7 9 12 9 7 7 6 7 7 7 7 9 11 12 13 14 14 15 16 17 17 18 19 20 21 20 19 19 16 13 11 8 10 9 12 16 17 18 18 17 17 17 19 18 19 18 17 17 17 17 18 18 17 17 16 15 16 17 18 19 20 18 18 19 19 18 17 17 16 16 15 14 15 15 13 11 9 9 9 10 9
Wind_Speed
3 1 1 1 1 2 1 2 4 2 1 3 3 2 1 2 3 5 4 2 4 1 1 2 9 12 6 5 7 6 4 12 4 8 2 3 4 10 8 11 12 12 12 11 10 11 12 12 13 15 15 16 15 14 15 16 17 16 15 14 14 14 14 14 15 15 14 13 13 13 13 13 13 13 13 13 12 11 11 11 12 12 12 12 12 12 11 11 11 11 11 12 12 12 12 12 12
1 1 1 2 0 1 2 2 2 0 1 1 4 1 1 1 2 5 2 0 2 3 3 7 8 9 9 13 11 10 7 6 3 3 2 5 10 8 9 11 12 13 11 10 9 10 10 11 13 14 15 16 15 14 15 16 16 16 15 14 14 13 13 14 14 14 13 12 12 12 12 12 12 11 12 12 10 11 10 11 12 12 12 13 13 12 11 11 11 11 11 12 12 12 12 12 12
0 1 2 1 1 2 4 1 3 1 2 3 1 3 2 5 5 5 4 3 5 7 5 8 10 7 5 7 7 3 4 1 4 4 5 10 12 7 9 10 11 12 12 9 8 9 8 11 11 13 14 17 14 14 15 15 16 16 15 14 14 14 14 14 13 13 13 12 12 12 12 11 11 11 11 11 10 8 9 10 12 11 12 12 13 13 12 12 11 12 12 12 12 12 12 12 12
1 1 2 1 2 2 2 1 1 3 3 1 2 1 2 4 5 6 3 3 7 1 1 3 3 2 3 6 4 6 6 5 4 8 7 10 7 10 10 11 11 9 9 8 9 7 7 11 11 11 14 16 15 14 14 15 15 15 15 14 13 13 12 12 13 12 12 12 12 11 11 11 11 11 10 9 8 7 8 9 10 11 11 12 12 12 13 12 12 12 11 11 12 12 12 13 12
1 1 1 1 1 2 2 2 1 1 4 4 1 2 2 2 3 3 5 5 0 3 0 1 4 4 4 7 1 1 3 6 8 6 7 7 9 9 11 10 10 10 9 8 7 7 7 12 11 10 12 13 15 13 13 14 14 14 15 14 13 13 11 12 12 12 12 11 11 11 11 10 10 10 10 9 8 8 8 8 10 10 10 11 11 11 11 11 12 12 12 12 12 12 12 13 13
1 1 0 2 1 2 3 3 2 3 1 2 1 2 0 1 3 5 4 2 1 1 2 1 1 6 3 4 2 4 7 4 7 7 9 9 12 12 12 10 10 10 9 8 7 6 7 11 9 10 11 12 8 13 13 13 12 13 14 14 14 13 12 11 12 12 12 11 11 11 10 10 10 10 9 9 9 8 8 9 10 9 10 11 12 12 11 11 11 12 12 13 13 12 13 13 13
1 2 1 2 3 1 2 1 2 2 1 4 1 3 1 1 2 1 2 2 2 4 4 3 5 9 7 5 7 5 2 2 9 8 6 12 12 12 11 10 11 11 10 8 7 7 8 9 9 8 14 10 5 7 12 13 12 12 13 13 13 13 12 11 11 11 11 11 11 11 10 10 10 9 10 9 8 8 9 9 10 9 11 11 12 12 12 11 12 12 13 14 15 13 14 12 11
1 2 1 2 2 1 1 1 1 2 1 6 2 5 5 4 3 2 2 1 2 1 3 5 5 2 5 2 2 3 4 2 7 10 13 12 12 12 10 9 11 10 9 8 7 7 9 8 8 9 15 15 12 7 3 13 13 12 12 12 13 13 12 12 12 11 10 10 10 10 10 10 10 10 10 10 9 8 9 10 10 9 10 12 12 13 13 12 12 13 13 14 15 15 13 12 10
1 1 1 2 3 2 2 1 0 1 7 4 8 8 5 5 7 5 4 1 1 2 4 3 4 3 4 5 4 2 4 7 10 12 13 13 13 12 8 9 11 9 9 9 8 7 7 7 6 7 13 17 14 10 6 11 10 11 12 11 11 10 10 11 12 12 11 9 9 10 10 10 10 10 11 10 10 7 8 9 8 9 11 12 12 13 14 13 14 14 14 15 15 15 13 11 10
2 2 3 1 2 4 1 1 2 2 4 5 6 5 5 5 7 6 7 6 1 5 4 3 4 6 6 7 7 4 5 9 12 12 12 12 12 10 10 10 11 12 10 8 7 7 6 9 5 6 11 17 14 12 9 9 9 9 10 11 10 10 10 10 10 10 10 9 8 8 9 8 9 11 11 11 11 10 9 9 7 8 10 12 11 12 13 14 14 14 15 15 15 14 13 12 10
1 2 1 3 2 3 4 1 2 2 6 6 8 8 10 5 5 5 6 5 2 2 5 2 6 7 4 4 4 0 6 10 12 12 12 12 12 11 10 10 10 10 10 9 8 8 8 8 10 9 10 15 13 12 11 11 8 8 8 8 9 10 10 10 9 10 10 9 8 8 8 8 10 11 12 11 9 9 11 9 7 7 9 11 11 12 13 14 14 13 14 15 15 13 12 11 10
2 0 1 2 3 2 1 1 1 4 6 4 6 1 3 6 5 4 7 9 5 4 6 7 6 7 6 3 3 5 9 9 11 11 11 11 10 11 10 8 9 9 11 10 10 9 9 9 9 12 13 13 15 12 9 10 11 10 9 8 8 9 10 10 9 9 9 9 8 8 8 9 10 11 11 11 9 9 9 9 7 6 8 11 12 12 12 13 13 12 12 12 13 12 12 10 10
0 1 3 1 1 2 3 1 2 3 4 4 5 4 4 6 6 7 8 11 8 8 5 5 12 3 4 2 4 6 9 10 11 12 11 10 10 10 9 10 10 10 10 10 10 10 10 9 8 8 11 15 14 14 11 11 12 11 9 9 6 8 10 9 9 8 9 9 9 9 8 8 9 10 11 10 10 7 9 9 8 6 7 9 12 12 12 12 12 12 11 11 10 11 12 11 10
2 2 3 2 1 2 3 1 1 3 2 1 3 1 3 2 5 7 5 7 9 11 3 11 10 8 6 6 4 7 9 11 12 12 10 11 10 10 11 10 10 10 10 9 10 9 9 9 8 8 9 9 9 10 10 9 8 9 8 6 4 7 4 5 6 7 8 8 10 9 9 9 10 11 11 10 12 11 9 10 9 8 7 8 10 11 11 11 11 12 11 11 10 9 9 11 10
1 1 2 2 2 1 2 3 1 2 0 1 2 5 4 4 2 3 10 10 8 4 7 4 5 9 6 10 6 10 12 13 12 12 12 11 11 11 11 9 10 10 9 8 8 8 9 8 8 8 7 7 7 6 7 9 10 10 8 5 5 7 6 5 3 6 8 9 9 8 9 9 11 12 13 11 11 11 12 10 9 8 7 6 8 10 10 11 10 10 12 12 11 10 8 7 8
3 3 2 2 1 2 2 4 2 1 3 2 1 3 2 1 3 4 6 3 6 3 11 7 2 1 5 11 4 14 15 14 12 12 11 12 11 10 10 9 8 8 7 7 6 6 6 7 7 7 7 6 5 6 7 7 8 9 14 11 9 8 6 7 6 3 8 9 11 10 9 9 10 10 14 12 13 11 10 10 11 10 8 7 5 8 9 10 10 10 10 11 11 11 9 7 5
1 0 2 2 3 3 2 4 5 3 3 3 1 6 8 3 1 1 3 7 14 10 1 2 5 2 5 5 10 16 15 12 12 14 13 10 8 7 7 8 7 7 6 6 5 5 6 7 7 6 7 7 6 5 6 5 6 8 8 12 14 12 6 8 4 3 5 8 8 7 7 6 6 6 8 8 12 10 9 9 11 10 9 8 7 6 9 10 10 10 10 10 10 11 10 8 5
2 1 2 2 0 5 4 5 6 2 5 8 7 4 7 3 3 3 5 7 9 7 6 3 6 5 4 7 15 16 15 14 14 14 13 11 9 8 7 8 8 7 6 5 4 4 5 6 7 7 6 7 6 5 3 4 5 4 6 6 7 10 8 8 6 4 5 5 6 6 6 5 6 6 5 6 6 8 9 10 10 10 9 8 7 5 6 8 10 10 11 10 9 9 10 6 5
1 2 1 4 4 3 2 2 3 4 8 8 9 4 4 4 6 3 4 10 12 11 5 3 7 8 10 13 17 17 15 14 14 13 14 14 11 12 9 7 8 7 6 5 3 3 4 4 5 6 7 7 7 6 5 4 4 4 5 6 6 8 7 5 5 5 4 4 4 5 4 5 5 6 5 5 5 7 7 10 9 9 8 8 7 5 4 6 6 9 10 12 10 6 3 4 4
1 2 3 5 4 4 4 4 7 6 8 11 10 5 2 1 2 3 6 7 9 14 11 7 9 11 12 15 17 17 15 15 15 15 15 14 12 12 11 10 9 8 7 5 4 2 3 3 4 4 6 6 6 5 5 5 4 4 4 5 5 5 6 6 4 3 3 3 3 3 3 4 5 5 6 6 6 5 6 9 9 8 8 8 7 6 4 4 7 8 9 11 7 3 2 2 3
2 2 4 2 2 3 3 4 8 8 4 5 5 6 2 2 2 4 10 10 5 5 8 15 15 16 17 17 17 16 16 16 16 14 14 13 11 9 10 10 9 8 7 6 3 3 4 3 3 4 4 4 5 5 5 5 4 4 4 4 4 4 5 5 4 5 3 4 3 3 3 4 4 4 3 3 3 2 2 4 5 5 5 5 8 4 4 5 5 5 6 5 3 4 3 2 2
4 5 2 4 2 5 9 6 5 4 1 3 2 7 4 4 2 6 13 11 9 7 10 5 9 18 21 20 19 17 17 17 16 15 14 14 15 12 8 8 8 8 7 6 6 5 5 4 4 4 4 4 4 4 3 5 5 4 4 3 4 4 5 4 4 4 4 4 3 4 3 4 4 3 3 3 3 2 4 4 4 4 5 5 5 4 4 4 3 3 4 4 2 2 3 2 1
5 2 4 5 5 7 3 3 2 3 3 6 7 3 2 2 2 6 10 0 4 2 3 4 9 13 18 19 19 18 17 17 16 15 15 15 14 11 11 8 9 8 7 7 7 5 5 5 5 5 4 4 4 4 4 4 3 4 4 4 3 4 4 4 4 4 4 5 5 5 4 3 3 3 3 4 4 1 4 4 4 5 5 5 4 3 4 3 3 4 4 4 3 2 3 3 1
4 4 1 6 5 8 7 8 2 3 2 8 3 2 6 2 4 4 5 3 3 5 3 10 12 13 15 18 17 17 16 15 15 13 13 14 14 12 10 9 8 7 7 8 7 6 5 7 6 6 5 5 5 5 5 4 4 4 5 5 4 4 4 3 3 3 4 4 6 6 4 4 4 3 4 4 4 5 4 4 4 4 4 4 3 3 3 3 2 3 4 5 4 3 3 3 2
3 4 3 5 2 7 8 6 5 3 7 8 2 4 4 4 3 7 9 2 2 3 8 14 14 14 14 14 17 17 14 14 13 12 10 9 10 9 8 7 9 8 8 7 6 6 6 5 5 5 5 4 4 5 4 4 4 4 4 4 4 5 4 4 4 4 4 4 5 6 6 5 4 4 4 4 4 4 4 4 4 4 3 4 4 4 3 4 3 3 3 4 3 3 3 3 3
6 7 1 4 7 7 4 7 5 7 4 2 4 1 2 1 2 4 2 2 2 6 10 14 15 15 14 15 13 15 15 15 14 11 10 9 9 11 10 9 9 9 7 7 6 5 5 5 5 5 4 3 4 4 4 4 4 4 4 4 4 4 4 3 4 4 3 4 3 5 5 5 5 5 4 3 4 3 3 5 4 3 4 2 4 4 4 3 4 4 3 3 3 3 3 3 2
4 5 6 9 9 6 3 2 3 2 3 1 3 4 3 3 2 2 3 3 6 8 9 11 15 16 15 13 13 14 15 15 15 12 9 8 9 10 9 8 9 8 6 7 6 5 4 5 5 5 4 4 3 3 3 3 3 3 3 2 3 3 4 3 1 2 2 3 3 4 5 5 4 4 5 4 2 1 2 3 4 3 4 3 5 5 5 4 3 3 4 4 4 3 3 2 2
2 5 6 7 6 2 5 5 3 1 2 2 1 3 0 2 2 2 1 2 5 11 10 10 11 13 14 14 14 14 13 11 9 11 14 13 11 10 10 9 9 7 8 8 6 4 4 5 5 4 4 4 4 3 3 3 3 3 2 1 2 2 3 2 0 2 2 1 2 3 4 4 4 4 4 2 4 3 4 4 2 2 3 6 5 5 4 3 2 2 2 2 2 1 2 2 2
2 1 6 6 3 3 5 3 3 3 2 2 2 3 1 1 1 3 1 3 5 9 10 10 9 10 11 13 11 9 10 10 8 10 11 9 7 7 9 8 9 8 5 5 5 5 6 5 4 5 5 4 5 4 3 3 2 3 3 2 2 2 2 3 5 3 1 1 1 2 3 3 2 3 3 1 2 3 4 5 5 5 7 6 4 5 5 4 3 3 3 2 2 2 2 2 2
0 2 2 5 3 2 9 1 2 2 1 2 2 3 3 4 2 2 1 5 7 9 9 8 7 7 8 9 9 9 7 8 10 9 7 8 8 7 9 7 7 6 6 5 5 6 4 3 3 6 6 6 4 3 2 2 3 3 3 3 3 3 2 2 2 2 2 1 2 1 1 2 2 2 3 2 1 3 5 5 5 7 6 4 4 5 6 5 5 3 3 3 3 3 2 2 2
2 3 1 2 2 2 6 5 8 4 3 2 2 3 1 1 4 3 2 4 11 10 9 9 8 8 9 8 9 10 10 8 7 6 6 6 6 6 7 7 7 6 5 5 8 7 6 4 4 5 6 5 4 4 4 4 3 4 4 4 3 2 3 3 2 2 3 4 3 1 1 2 1 1 3 3 3 5 7 6 6 4 4 5 5 4 5 6 5 4 4 4 4 3 3 2 1
2 1 1 1 2 2 4 3 8 5 2 4 1 2 3 5 5 3 2 3 5 9 10 10 10 10 10 9 9 9 8 6 5 7 6 7 7 7 8 9 8 8 9 7 6 5 5 5 5 6 6 6 5 4 4 4 4 3 4 3 3 2 3 3 2 3 3 3 3 3 2 2 2 1 1 4 5 6 5 3 4 4 6 5 5 4 3 2 4 5 5 5 4 4 3 2 1
2 2 0 1 1 2 2 5 3 3 2 3 2 3 2 1 5 2 2 3 5 7 9 9 9 10 9 9 9 7 6 7 7 9 9 8 7 7 7 9 9 9 8 8 8 7 6 5 5 6 7 7 6 5 5 4 3 4 3 3 2 2 3 3 3 3 3 3 3 4 3 3 4 2 1 2 2 2 0 3 2 3 4 5 4 2 0 2 3 5 4 5 5 3 2 2 3
1 2 2 1 1 2 2 5 5 7 5 1 5 2 3 1 4 1 2 2 6 7 9 9 9 9 11 9 9 9 9 9 11 12 11 9 7 8 6 6 7 6 5 5 6 7 8 7 6 5 5 5 5 5 4 4 4 4 4 3 3 3 3 3 3 3 4 4 5 5 5 5 4 3 3 3 3 2 1 3 3 3 2 1 3 3 4 6 6 7 4 3 4 4 3 3 2
2 3 2 2 1 2 4 2 5 7 5 2 1 2 6 3 3 2 4 2 6 6 6 8 9 9 9 9 9 10 9 10 11 6 5 7 7 7 6 6 6 5 4 5 5 5 6 6 5 5 5 5 5 5 5 5 5 5 4 4 4 4 4 3 3 4 4 5 5 6 6 5 4 4 4 4 3 3 3 2 2 2 2 2 2 4 3 6 8 7 5 4 3 3 4 3 1
1 4 2 2 1 2 1 1 2 5 2 1 0 2 4 4 4 3 3 3 5 5 4 3 5 6 7 8 8 8 9 11 2 4 5 6 7 6 5 5 4 4 4 5 6 6 7 7 6 5 5 4 4 5 5 5 4 4 5 4 4 3 4 4 4 4 4 5 5 5 5 4 4 3 4 4 3 3 3 3 3 4 4 4 2 1 2 2 3 6 6 7 4 3 3 3 4
4 3 3 2 1 2 3 2 2 2 1 1 1 1 2 6 5 4 1 1 5 6 7 6 7 8 9 10 11 11 10 9 3 4 6 8 8 5 5 5 5 5 5 6 7 8 8 9 8 8 5 4 5 5 5 6 5 4 3 4 4 4 4 4 4 3 4 4 5 6 5 5 4 4 3 4 4 3 3 4 3 3 2 2 2 3 4 2 3 3 3 5 6 6 4 5 5
3 3 3 2 2 1 2 2 3 2 2 1 1 2 3 4 3 4 2 1 6 9 8 8 10 11 10 12 13 13 11 3 4 5 6 9 8 8 6 6 8 10 8 8 9 9 8 7 9 8 6 5 4 5 4 3 3 4 4 4 4 5 5 5 5 4 3 3 4 4 4 4 4 4 4 5 5 5 4 5 4 3 2 2 3 4 5 5 5 5 3 3 5 6 5 4 3
2 3 2 2 2 4 5 2 1 2 1 1 2 3 4 3 3 2 3 5 3 3 7 10 12 11 11 11 12 10 6 8 7 8 7 8 9 9 8 7 8 8 8 9 7 8 7 7 7 7 6 6 5 4 5 4 2 2 3 4 4 4 2 2 3 4 4 5 4 4 4 3 4 4 5 5 4 5 5 5 5 5 5 4 6 6 5 4 2 2 3 3 5 3 2 3 5
3 2 4 3 2 1 1 2 2 4 3 3 2 4 5 3 4 4 5 4 4 3 2 3 5 10 13 15 15 12 12 9 12 12 11 9 10 9 8 9 9 8 8 8 8 9 7 7 7 8 7 6 5 4 4 4 5 5 6 5 3 2 3 3 3 3 4 5 5 4 4 3 4 4 5 6 5 5 5 5 5 5 5 5 6 7 7 6 5 4 1 3 4 4 2 2 2
0 3 1 0 2 2 2 2 3 1 3 1 3 5 4 2 0 3 2 3 5 3 4 4 4 7 7 5 5 9 13 14 12 10 9 10 12 14 14 11 9 10 10 10 10 9 7 10 9 9 8 8 6 6 6 6 7 7 6 6 5 5 4 3 4 3 3 4 4 5 4 3 4 4 5 6 6 6 5 5 6 5 6 5 6 7 7 7 6 5 5 4 2 1 3 2 2
2 6 8 6 3 4 2 2 2 2 1 6 4 5 0 2 3 2 2 2 2 2 3 4 5 3 4 9 11 9 9 7 11 14 15 15 15 12 10 12 12 11 11 10 9 9 10 8 9 8 7 7 7 7 7 7 6 7 7 5 5 3 4 4 4 4 4 4 4 3 4 3 4 5 5 6 6 6 6 6 6 6 6 5 6 6 6 7 7 7 6 6 6 5 3 4 3
2 3 7 5 5 3 3 2 0 2 4 3 2 3 2 1 2 1 3 4 6 1 4 0 1 2 5 7 7 8 11 11 10 10 11 12 12 12 13 14 15 14 12 9 9 9 10 9 10 10 8 7 7 8 8 7 7 6 7 7 6 6 5 3 1 1 3 3 3 4 4 3 4 6 5 5 6 6 6 6 6 7 7 6 6 7 7 7 7 7 5 6 6 5 4 5 4
4 1 6 7 6 5 4 3 2 0 1 1 2 2 3 4 2 2 2 5 4 5 5 6 1 2 5 5 6 9 10 11 10 13 14 14 13 15 17 17 14 13 10 11 9 9 11 10 10 9 7 7 7 7 8 7 8 7 7 6 4 4 3 3 3 3 2 3 4 5 5 5 4 5 5 5 6 6 6 6 6 7 7 7 7 7 7 6 6 7 7 7 6 6 6 5 4
1 1 2 5 3 2 5 2 2 1 2 4 2 1 2 2 2 1 4 1 5 4 9 11 10 6 4 6 9 10 9 10 12 12 13 14 14 15 14 13 12 10 11 12 12 10 8 9 10 9 9 8 7 8 8 8 7 7 7 6 5 3 2 1 3 3 4 4 5 4 5 5 5 4 5 6 5 7 6 7 7 7 7 7 7 7 7 8 9 8 8 7 7 7 6 6 5
1 6 8 6 7 7 3 2 2 1 2 5 2 1 5 5 2 2 2 1 5 6 10 10 9 11 9 7 7 7 10 11 10 12 12 13 13 12 9 7 8 9 8 8 8 9 9 9 10 11 11 9 8 9 8 8 7 6 6 6 7 5 3 3 3 4 4 4 6 5 5 5 5 5 5 5 6 7 7 7 8 9 8 8 8 8 9 9 9 9 9 8 7 8 6 7 7
8 4 7 5 6 3 2 4 1 1 2 6 3 3 3 6 1 2 3 3 4 8 7 8 10 12 13 12 11 10 9 8 9 9 11 10 6 6 9 11 11 8 8 10 10 10 9 9 10 12 11 8 9 9 9 9 7 7 7 8 8 7 6 5 5 5 4 5 6 5 5 5 5 5 5 5 6 6 6 7 7 8 8 8 8 9 8 8 8 8 8 10 10 9 7 7 7
5 2 3 4 3 1 2 2 1 2 3 1 3 1 2 6 1 3 2 5 4 5 7 10 12 12 12 13 12 12 10 7 6 7 8 9 8 9 10 11 11 11 10 11 10 9 9 8 9 12 11 11 9 9 9 8 7 7 6 8 8 7 8 6 7 8 7 8 7 6 5 5 5 5 5 5 5 5 6 6 7 7 7 8 8 8 8 8 7 8 7 7 7 8 8 7 7
3 4 4 3 1 1 1 2 3 4 4 2 3 1 2 8 3 3 3 2 4 3 5 8 10 11 12 12 13 11 8 7 4 4 6 8 10 10 12 11 10 12 12 13 13 10 8 9 13 13 13 11 10 9 10 9 8 8 8 8 8 7 8 8 8 7 7 7 6 6 6 6 6 6 5 6 6 6 5 6 6 6 7 7 8 9 9 9 8 8 8 8 8 8 7 7 7
4 5 3 4 3 1 2 1 1 3 3 2 1 1 4 2 1 2 2 4 4 5 6 7 7 9 10 10 10 10 9 6 2 1 3 5 6 7 6 6 7 7 8 9 9 8 9 9 10 12 12 11 10 10 10 10 9 8 8 8 7 7 7 7 7 7 7 6 7 8 8 7 7 7 7 7 7 7 5 6 6 7 7 8 8 8 8 8 8 8 8 8 8 7 7 8 7
4 3 7 6 5 4 2 4 4 5 1 2 0 2 1 3 3 2 3 4 4 5 5 5 6 6 6 7 8 10 9 9 6 4 2 4 5 7 7 7 6 6 8 9 8 8 8 7 8 10 10 10 11 11 10 10 9 8 7 7 7 6 7 6 6 5 7 7 7 7 6 6 6 7 7 7 8 7 7 6 7 7 7 7 7 7 7 8 8 7 7 7 6 6 7 6 6
2 1 3 3 5 4 7 1 3 2 2 1 3 2 0 1 3 3 2 2 4 4 5 5 7 7 6 8 10 10 10 11 9 7 5 5 4 5 6 7 7 7 8 7 9 9 9 9 8 8 9 8 8 7 7 7 6 5 6 7 7 6 5 5 4 4 4 5 7 7 7 7 6 6 6 7 7 7 7 7 7 7 7 7 7 7 7 7 8 7 6 6 6 4 6 6 5
4 3 6 2 3 5 5 2 3 1 1 3 2 2 2 2 1 1 2 3 4 3 5 7 7 8 9 10 10 11 11 11 11 10 8 7 4 3 6 7 8 8 9 9 10 9 10 8 7 8 8 7 8 9 8 6 4 4 4 3 4 5 6 7 6 6 6 5 5 5 6 6 5 5 6 7 8 7 7 8 7 7 7 7 7 7 7 7 7 6 6 6 6 5 5 5 4
7 5 4 5 1 3 2 3 1 0 4 2 2 3 3 4 2 5 4 3 4 5 6 6 7 8 10 8 9 11 11 11 12 12 12 10 8 6 3 2 6 8 8 9 9 8 8 8 8 9 9 10 9 9 8 8 8 8 8 8 7 7 6 6 5 6 5 6 5 5 4 4 6 5 5 5 7 8 7 8 8 8 7 7 7 6 6 6 7 6 6 5 5 4 4 4 4
3 2 4 4 2 4 1 2 1 2 2 2 2 1 3 6 4 7 7 4 3 3 4 4 7 8 8 8 9 10 11 10 12 12 12 12 11 10 8 5 4 2 5 7 8 8 8 9 9 10 11 11 9 7 8 7 8 7 7 10 11 9 8 7 6 5 5 6 7 7 7 6 5 5 5 6 6 7 7 7 7 8 7 7 6 6 6 5 5 6 5 5 4 3 4 4 3
4 3 4 2 2 1 4 3 1 2 2 1 2 3 4 6 5 12 8 5 2 1 0 2 4 4 4 5 7 8 10 10 10 11 11 11 11 12 11 10 8 6 4 2 2 5 9 9 9 9 8 8 9 9 8 9 8 8 8 7 5 6 9 9 8 8 7 9 9 8 8 8 8 7 7 8 8 8 8 8 7 8 8 7 7 6 5 5 5 5 5 4 4 3 4 3 3
3 4 1 2 2 2 2 2 2 3 2 2 1 2 4 2 2 8 8 6 3 2 1 1 2 2 3 4 5 6 8 8 9 9 9 10 10 11 12 10 9 9 8 6 5 3 2 3 6 8 9 9 9 8 9 9 8 9 10 9 9 11 11 9 9 10 9 9 8 8 8 8 8 8 8 9 9 10 10 9 9 9 9 8 8 7 6 5 5 5 5 4 3 3 3 3 3
1 2 3 3 4 5 5 5 3 2 4 3 4 5 1 2 1 3 6 3 2 2 1 1 2 2 2 3 5 5 6 7 7 8 8 9 10 10 10 9 10 11 10 10 8 7 6 3 4 4 6 8 9 10 10 9 9 9 11 11 11 10 9 9 10 9 10 9 9 8 8 8 9 9 9 10 11 9 9 10 10 10 9 8 8 8 7 6 6 7 6 4 3 3 3 3 3
Wind_Direction
239 271 320 314 207 233 201 32 234 109 235 245 309 203 55 262 293 288 203 126 215 83 234 175 144 144 169 190 151 91 11 165 155 161 192 46 146 137 128 126 123 121 128 135 141 148 151 146 146 146 143 140 143 140 139 138 139 138 136 133 131 130 129 129 129 130 132 132 132 132 130 129 129 129 128 128 127 124 125 128 128 127 125 124 126 129 131 136 140 140 140 136 135 133 131 132 127
189 53 25 241 177 226 146 293 85 195 46 266 226 70 293 286 273 233 243 333 20 118 134 108 97 77 70 101 118 112 62 16 7 17 81 132 130 121 130 125 123 120 125 131 141 146 143 149 148 153 143 141 144 143 142 141 142 140 136 135 133 132 131 129 128 127 129 131 132 132 130 130 128 125 127 127 126 129 130 132 131 130 126 127 129 131 135 140 142 142 140 139 137 136 133 131 128
78 233 111 165 115 11 113 291 230 60 206 240 237 219 48 262 249 274 259 331 120 127 122 104 99 75 103 124 133 271 121 65 116 119 100 142 139 128 132 119 112 113 119 128 134 143 146 151 145 148 152 140 142 145 144 144 143 141 139 138 137 135 133 131 127 126 129 132 135 135 136 134 131 130 128 128 130 131 129 132 134 130 130 130 132 133 135 138 141 140 142 141 139 135 134 131 129
119 341 222 204 106 275 109 97 91 166 197 276 313 139 255 294 288 303 284 190 120 154 235 144 117 336 203 151 97 88 99 146 159 141 132 157 138 132 131 114 110 108 112 126 133 136 145 145 149 152 157 140 139 145 149 148 147 142 141 141 138 136 133 132 131 130 132 134 136 136 137 137 135 134 129 121 119 122 126 127 130 132 130 129 133 133 136 139 139 139 138 138 135 136 134 130 129
252 106 270 217 193 114 157 65 100 180 224 176 13 346 298 289 336 33 114 151 160 330 238 110 112 32 45 82 72 263 132 107 136 149 134 122 127 128 128 120 112 111 115 121 125 135 143 141 151 153 156 139 139 145 150 152 149 145 142 140 140 138 136 134 135 135 136 135 135 134 135 137 135 131 126 120 113 116 113 111 107 119 129 128 129 132 136 137 137 137 137 138 135 133 129 125 123
90 214 61 254 294 41 105 166 153 202 360 142 200 104 333 24 85 89 119 231 59 29 18 125 145 168 126 31 19 120 126 150 151 142 140 136 134 133 128 120 113 112 119 125 131 137 143 145 149 143 145 127 161 149 149 152 152 147 142 141 143 142 138 136 138 138 139 137 134 133 133 136 138 132 125 120 113 113 116 111 122 129 128 127 133 134 136 135 136 136 138 137 129 128 121 122 113
204 170 46 107 105 280 220 203 170 212 166 199 278 154 153 32 109 289 51 177 78 58 26 94 118 118 100 111 99 69 317 127 164 139 143 133 132 131 128 113 111 115 123 125 132 133 123 123 150 146 137 130 167 168 149 150 148 146 144 143 145 147 143 139 140 140 140 139 139 138 138 141 141 137 130 122 115 122 129 130 133 129 132 134 134 137 138 138 141 141 138 136 127 123 118 111 104
60 257 42 196 99 260 161 97 214 217 126 207 305 269 228 355 353 291 319 307 114 317 76 71 26 22 76 300 144 39 68 93 117 126 119 131 128 126 122 117 111 115 120 126 129 128 127 103 126 135 136 154 179 161 176 153 149 147 145 144 148 150 147 146 145 144 144 145 145 143 141 142 142 138 131 130 130 137 139 139 141 137 142 138 136 141 141 144 142 129 135 134 125 127 127 113 103
349 88 238 163 174 65 123 211 342 219 289 211 253 239 275 279 298 304 280 274 161 141 136 32 360 214 131 98 88 86 78 110 120 124 127 125 128 131 126 122 117 119 123 127 126 129 130 126 136 140 137 154 164 168 167 156 135 147 150 149 151 152 150 148 147 145 145 148 150 147 146 148 146 137 134 137 137 140 139 135 145 141 145 136 136 140 142 140 135 133 137 134 135 136 131 115 101
101 287 152 95 65 213 356 154 225 170 251 265 266 262 226 224 234 257 272 272 244 136 129 84 28 86 119 103 119 105 116 128 122 126 130 130 131 127 116 114 117 122 124 125 127 127 124 137 133 118 129 147 159 168 170 165 151 139 149 155 156 154 151 149 145 144 145 148 149 146 144 144 142 138 139 146 147 139 144 150 150 138 141 135 134 135 138 140 140 140 140 137 139 141 127 119 111
135 48 7 185 181 229 222 169 235 240 241 289 284 235 241 217 230 238 240 274 106 192 152 175 80 102 118 98 82 55 134 129 130 128 132 126 128 117 109 110 113 118 123 124 124 124 128 131 122 104 111 138 156 164 169 174 164 165 157 157 162 160 152 147 146 146 144 146 148 142 140 138 138 139 144 147 145 145 147 139 145 137 132 135 134 133 136 140 141 141 141 141 142 132 122 121 116
149 241 187 172 218 228 109 233 235 251 271 303 282 142 169 186 184 213 216 230 196 192 185 183 156 145 89 111 115 134 137 143 132 130 126 121 119 111 112 112 116 115 117 119 120 121 123 126 127 112 108 126 145 155 180 178 167 177 168 164 165 162 149 149 148 143 144 147 148 140 139 145 147 143 139 141 145 148 143 144 150 146 136 139 138 137 137 137 137 137 136 134 131 127 124 125 122
34 167 120 172 101 201 114 263 259 301 303 232 262 98 142 155 192 227 210 214 188 186 201 183 131 169 121 117 115 147 158 146 138 137 129 125 119 117 114 117 119 119 119 121 122 120 118 115 115 115 112 118 135 161 181 171 168 169 171 167 163 158 147 145 142 141 144 144 141 140 142 145 146 142 139 137 130 136 148 150 153 155 143 139 140 136 134 134 132 130 128 125 126 128 131 130 129
195 209 163 204 35 122 181 297 274 272 224 296 247 103 175 253 232 240 172 193 191 195 107 146 142 118 91 125 163 170 167 153 144 140 132 124 123 119 120 122 121 122 123 125 122 117 108 108 104 107 118 118 128 145 159 166 166 151 160 157 136 119 78 140 141 141 142 140 144 149 147 150 146 146 144 147 146 156 151 154 154 156 154 139 140 137 136 135 136 133 129 126 125 129 134 135 133
130 195 88 93 134 206 188 228 220 172 181 228 36 342 317 235 263 194 197 193 183 57 122 119 141 170 180 177 179 184 167 159 149 147 136 125 122 122 122 122 123 125 126 123 121 118 111 103 99 101 105 118 125 134 144 160 153 147 134 151 109 112 145 177 143 138 140 141 146 161 159 150 151 150 150 155 147 155 159 155 155 156 153 152 139 135 141 140 138 138 136 132 130 129 131 132 135
121 133 47 197 143 234 179 223 140 285 263 210 91 288 295 129 230 203 223 232 120 173 158 158 268 318 128 188 137 165 156 154 148 139 137 134 128 124 127 124 126 128 126 123 110 103 106 106 107 108 114 116 121 130 132 143 152 155 150 182 165 161 169 115 245 170 149 153 155 159 161 158 159 157 154 159 160 163 156 160 153 154 156 159 152 139 143 146 144 142 138 135 132 131 128 125 123
136 285 163 67 206 212 179 214 168 208 314 273 150 11 347 323 50 276 302 157 137 156 101 77 175 16 182 161 142 148 149 144 142 145 146 141 132 124 134 136 136 136 133 121 119 114 113 112 110 106 109 115 120 127 128 134 150 156 151 157 161 136 140 147 174 158 157 162 163 160 158 173 171 163 160 161 157 162 148 152 156 156 157 163 166 167 144 148 151 149 138 137 136 133 127 116 99
200 129 118 198 165 212 201 211 197 47 298 310 310 28 301 285 105 93 132 111 119 125 104 63 61 60 114 112 145 143 144 147 149 152 153 148 145 137 146 147 145 144 142 132 123 124 121 116 117 117 115 121 121 118 121 118 129 141 138 138 137 131 156 157 152 164 173 168 173 156 173 171 166 154 159 171 167 162 155 155 161 162 161 163 166 176 148 144 151 149 145 136 131 129 132 135 119
124 114 210 237 181 248 179 201 241 287 299 303 300 317 274 244 161 159 169 143 141 135 105 99 85 101 105 132 141 146 149 145 153 160 157 158 161 155 151 147 148 142 143 140 127 124 110 108 117 122 126 127 125 126 121 107 113 125 130 139 138 135 154 136 153 156 164 164 163 173 173 177 167 157 165 176 173 170 162 163 169 169 165 165 168 170 165 129 143 155 148 130 116 117 145 130 130
106 212 208 240 204 265 227 206 258 221 286 293 312 335 288 229 249 140 171 153 162 160 148 140 141 143 146 145 147 148 153 145 159 161 161 161 161 161 158 157 148 153 149 147 135 123 115 109 108 117 128 135 137 130 123 123 124 138 127 131 143 139 130 139 143 122 130 142 135 157 178 172 173 162 168 162 167 180 167 170 179 174 173 172 164 173 166 142 132 138 139 123 120 130 132 141 132
133 217 231 265 173 265 249 194 241 259 226 271 304 305 260 165 224 176 141 141 215 214 193 165 169 159 152 153 152 154 156 158 164 166 163 162 159 157 162 160 158 154 153 146 151 161 151 139 143 142 132 130 129 130 132 133 130 129 125 124 140 142 130 146 154 155 154 143 129 153 173 170 173 162 151 167 174 174 174 173 185 181 185 180 173 179 183 164 176 146 130 119 120 130 133 115 123
142 236 242 231 142 261 264 252 244 244 167 243 289 333 350 347 163 158 164 180 189 197 200 346 151 151 154 158 159 159 161 163 167 166 163 164 162 163 148 144 141 146 150 157 174 175 177 163 163 150 153 135 121 121 125 129 131 135 132 129 140 143 140 148 163 168 165 158 151 156 160 174 175 161 160 159 164 176 189 184 188 181 186 185 178 184 185 182 154 147 128 127 131 126 129 126 110
236 190 250 235 234 263 297 245 225 169 274 282 306 334 285 271 150 182 186 321 11 337 319 131 155 162 159 156 157 162 165 167 166 167 166 166 163 156 154 146 152 157 161 168 178 185 180 175 167 161 150 134 130 133 134 131 126 128 135 140 144 144 150 153 167 162 169 179 184 179 183 193 167 184 172 164 153 152 191 195 188 188 190 188 178 190 190 187 165 157 154 136 147 158 141 132 131
246 263 20 279 182 228 246 259 230 245 298 276 115 13 294 289 206 162 191 187 306 314 181 129 144 154 158 161 167 164 161 162 164 165 169 169 166 158 155 151 160 164 171 172 184 186 185 181 166 168 148 146 146 147 139 141 130 136 143 143 153 149 154 169 178 174 159 176 191 197 193 186 173 179 197 187 170 180 191 193 186 192 195 190 176 196 199 194 176 174 160 133 158 166 151 143 126
208 267 229 264 189 235 255 265 282 288 260 264 285 279 281 177 293 152 203 212 345 130 139 128 139 151 160 162 163 160 158 161 162 163 162 165 163 148 153 165 169 172 181 181 185 188 185 165 165 157 143 144 149 149 141 140 144 151 151 155 170 145 155 171 178 180 174 179 194 197 196 185 181 180 194 191 171 187 193 186 190 192 211 185 187 196 203 186 187 182 156 148 156 157 159 146 143
196 237 199 255 259 265 286 293 281 265 269 218 258 218 20 62 48 207 49 27 138 131 130 134 142 154 161 165 160 158 163 164 163 160 167 163 159 161 172 174 174 183 186 179 182 189 170 163 174 158 149 153 154 162 144 146 150 151 158 163 134 145 153 163 171 192 185 174 183 200 196 189 182 186 193 187 195 171 219 206 200 194 208 197 206 210 205 196 190 182 159 148 163 172 172 149 154
177 234 235 265 279 314 331 270 307 332 262 226 203 69 75 31 260 151 49 88 136 131 134 144 148 159 163 162 162 166 166 169 171 163 146 152 166 174 168 173 179 181 170 183 190 180 157 176 173 154 156 161 159 154 151 144 148 147 150 173 144 137 140 127 155 212 207 173 178 200 197 192 183 184 198 191 74 33 254 246 209 190 199 194 209 214 211 206 191 194 179 168 177 182 161 153 179
201 252 277 254 287 240 267 259 288 220 64 250 253 84 76 328 238 12 348 156 166 138 147 154 152 156 166 166 165 172 175 171 160 156 164 170 176 176 171 174 182 172 182 190 187 159 161 182 167 158 162 161 167 150 153 151 154 139 127 113 124 140 145 154 279 269 168 185 187 200 200 198 186 171 204 186 130 213 195 210 247 339 237 206 207 210 205 215 171 184 210 166 140 168 161 173 171
282 269 294 306 341 140 13 1 27 287 66 235 198 122 28 282 193 352 297 173 169 140 149 160 158 151 155 164 168 172 174 169 168 182 178 175 165 170 167 178 172 177 197 181 166 156 174 171 157 167 178 160 176 171 155 157 153 125 115 103 114 120 147 158 181 198 139 58 123 197 227 215 157 181 181 227 191 164 231 189 180 189 233 210 199 207 212 215 205 185 190 184 174 166 184 176 174
186 82 337 293 351 64 14 307 328 140 53 220 213 229 196 225 282 338 347 163 143 131 149 160 159 155 160 165 170 174 173 174 186 192 171 168 172 174 171 180 183 183 177 177 160 178 168 152 146 165 173 175 162 135 129 123 124 123 114 119 113 122 120 130 150 180 166 100 336 60 5 173 146 132 94 144 67 99 240 208 192 215 206 221 209 203 205 211 212 199 190 186 191 186 184 178 199
274 346 54 17 295 46 5 19 309 103 333 4 197 281 321 218 43 28 356 196 158 153 158 167 166 166 169 176 179 186 190 194 187 186 171 178 171 174 175 170 186 190 172 178 185 172 159 153 149 165 168 160 142 130 128 118 116 117 125 125 130 142 138 117 104 129 138 156 150 148 346 15 24 157 143 167 186 199 194 227 219 215 203 210 208 204 205 198 210 215 197 197 180 197 202 164 198
9 224 53 16 335 78 328 26 27 48 88 325 234 284 276 344 342 355 27 224 196 158 168 173 174 175 177 182 188 194 193 191 194 200 195 191 184 179 180 181 181 188 191 179 164 140 149 152 162 152 152 140 124 121 115 107 109 119 120 122 122 128 137 136 118 94 91 108 119 119 154 190 167 118 149 149 197 217 215 202 213 196 200 200 205 202 213 211 216 213 205 209 189 196 217 206 201
22 349 135 343 317 16 286 60 58 78 272 42 338 284 308 111 18 35 31 202 201 176 175 175 179 179 183 187 193 198 189 201 207 206 200 192 193 191 183 181 187 190 183 167 164 150 143 151 157 150 148 139 130 122 117 109 109 112 106 102 99 112 118 118 105 103 104 95 94 80 68 73 113 118 133 133 117 250 123 101 139 197 215 215 203 179 261 279 246 221 204 209 209 203 200 284 279
65 340 87 325 21 359 110 325 66 357 12 34 28 212 243 28 316 36 93 196 191 192 182 182 183 186 193 193 195 199 203 201 207 204 197 187 191 193 190 182 182 181 178 168 162 156 151 154 156 151 135 138 137 135 125 118 112 110 111 112 112 106 95 93 95 94 86 82 81 85 100 91 88 109 128 156 174 151 227 174 200 202 176 150 190 180 193 209 239 235 223 210 223 223 219 213 245
162 139 125 133 214 279 325 295 12 349 47 21 338 236 280 290 288 190 163 143 203 202 194 188 189 192 196 203 205 208 210 213 218 201 174 180 195 192 184 181 179 180 173 167 155 144 142 144 143 145 144 144 134 120 108 99 102 94 96 109 110 106 98 83 87 89 81 86 83 91 90 95 90 91 95 100 100 98 98 123 182 163 161 100 102 182 202 193 215 231 238 251 256 239 243 231 261
226 169 125 142 173 147 249 204 28 357 344 96 78 343 329 307 287 223 148 127 185 186 183 190 205 206 208 212 217 217 221 224 175 172 159 179 197 189 180 171 176 179 170 161 157 153 148 141 147 142 151 145 130 123 128 123 122 123 118 115 108 98 103 100 86 88 90 87 89 91 92 88 86 80 78 93 98 105 107 107 111 117 113 133 162 104 178 184 218 226 206 206 229 261 343 296 251
81 85 137 150 196 243 263 261 14 331 233 171 50 270 259 288 277 272 55 27 161 173 184 187 200 203 206 212 215 221 226 229 169 173 171 180 189 183 168 167 174 178 180 172 165 164 163 158 152 152 154 156 153 146 145 141 133 118 110 122 124 128 116 109 97 91 90 87 88 90 90 89 91 81 74 84 87 92 96 102 120 126 147 161 178 142 132 120 178 241 235 177 176 220 231 222 224
152 141 173 165 221 198 91 40 14 14 314 49 90 291 254 265 294 278 304 278 212 183 184 198 198 205 209 211 217 219 220 190 197 190 178 174 184 176 169 176 176 182 192 181 180 170 165 155 154 144 152 170 168 155 146 148 144 144 144 142 136 139 141 140 127 121 107 95 84 81 83 90 88 88 84 84 81 75 78 84 89 104 134 105 102 124 116 171 195 180 182 146 183 189 201 191 179
96 209 171 219 223 278 301 246 337 358 225 307 128 297 280 264 271 269 234 212 244 204 195 198 194 198 204 212 219 224 215 219 201 211 177 186 180 177 180 182 189 200 179 183 176 161 157 156 150 149 159 166 174 164 155 146 124 88 110 134 140 120 37 41 107 114 119 108 85 84 86 89 95 94 87 83 79 72 70 73 80 86 86 96 99 90 113 144 201 228 192 174 142 190 142 184 190
159 162 189 233 64 297 200 160 338 20 18 338 359 300 284 293 256 252 266 249 294 315 268 246 227 206 203 207 206 202 211 205 213 206 194 183 183 181 183 187 188 189 186 184 177 171 162 160 160 163 161 171 173 176 139 101 92 88 79 97 73 79 127 130 116 127 120 114 98 86 82 81 88 87 84 88 85 77 72 75 77 75 74 73 85 91 87 78 50 36 27 109 114 127 173 156 169
122 206 246 173 187 214 247 337 325 257 124 14 259 247 254 35 346 118 101 297 287 302 328 276 209 230 247 279 278 222 206 201 208 197 192 183 186 193 191 180 172 191 191 187 179 175 170 172 169 167 165 172 175 163 145 130 119 103 101 92 93 96 106 130 135 129 123 113 109 96 84 81 86 86 82 82 87 86 83 81 82 80 76 67 71 77 79 81 84 62 44 66 80 139 168 114 65
193 219 207 210 182 187 237 296 293 320 222 48 358 303 221 347 305 248 358 318 211 226 280 236 251 236 227 229 228 227 245 235 209 200 197 193 195 187 172 172 185 194 195 188 176 174 174 169 162 168 167 169 173 164 155 148 146 140 140 137 144 152 155 171 175 157 154 145 111 107 101 84 91 86 86 89 88 88 86 87 88 90 85 75 73 75 75 73 64 68 61 55 56 58 88 105 105
170 242 191 182 167 122 138 149 275 299 309 51 330 293 287 351 11 56 337 322 301 200 227 138 331 251 203 223 237 231 227 224 225 224 209 200 198 183 185 185 189 193 193 165 169 177 181 168 167 170 171 174 174 166 164 153 148 155 157 159 163 170 171 184 40 90 138 118 115 111 103 91 92 99 90 92 91 88 89 87 86 87 87 84 82 79 70 65 63 58 58 67 63 57 65 83 69
203 88 148 143 142 170 174 135 197 3 326 252 42 352 280 289 294 79 294 292 302 315 351 17 47 312 304 289 240 228 232 230 224 220 215 208 194 191 190 193 186 191 165 164 171 174 181 170 163 172 172 177 181 170 174 168 160 160 154 153 163 178 174 160 162 158 128 133 127 118 115 106 96 98 102 96 99 97 92 88 88 88 84 81 80 78 77 73 76 69 60 63 63 60 61 68 67
338 109 171 133 147 124 134 152 112 35 291 272 147 117 266 235 266 115 323 28 10 344 357 335 335 329 288 273 281 284 266 240 223 218 216 208 200 199 195 188 186 164 165 177 178 174 165 160 169 171 175 178 183 184 177 178 170 165 161 161 165 162 147 128 146 150 157 151 138 129 122 115 105 93 94 100 101 102 96 95 90 86 84 82 83 82 77 74 70 68 64 61 61 61 63 69 70
66 130 96 94 90 69 58 117 120 95 270 267 253 44 273 285 277 338 22 28 344 328 329 321 324 323 320 312 305 275 277 280 262 246 229 212 206 198 181 151 156 177 168 164 159 162 168 167 176 172 179 183 180 188 186 176 172 163 163 170 175 161 158 135 156 158 162 166 152 144 136 132 126 117 103 102 102 101 100 98 95 92 87 83 80 78 77 73 69 68 64 64 63 68 59 54 57
130 191 101 76 56 63 67 55 90 136 230 255 30 328 259 287 315 35 360 2 308 311 316 323 328 335 333 333 330 321 306 276 262 247 238 228 200 172 164 181 171 152 160 168 172 176 172 173 169 178 184 180 178 188 188 179 174 174 176 174 179 170 162 156 157 162 167 171 163 158 152 139 139 129 122 113 108 108 102 99 99 98 97 94 90 83 75 74 70 69 67 64 58 57 57 58 59
172 154 127 112 89 46 94 51 47 228 253 107 358 247 228 245 168 122 1 298 274 283 301 316 326 326 327 326 330 328 321 303 268 235 219 202 178 181 174 176 167 165 162 173 175 173 176 171 172 180 188 184 178 187 190 183 179 181 183 176 180 180 170 173 176 171 176 176 168 162 151 146 143 137 135 130 126 122 116 109 109 108 105 103 97 94 91 85 80 75 69 65 65 62 59 58 53
181 123 131 245 229 41 222 197 220 207 258 64 353 245 201 228 284 355 333 330 339 326 292 312 318 320 326 330 333 331 332 314 268 228 199 184 183 178 184 176 158 165 178 177 175 174 161 166 186 188 189 183 181 184 191 188 186 185 182 184 187 177 183 185 183 174 173 174 170 163 164 162 155 156 155 145 141 137 125 122 118 112 110 108 107 104 100 96 91 87 82 79 72 68 65 64 64
183 199 157 210 236 146 258 203 358 302 244 40 233 359 266 359 292 52 326 2 353 329 328 337 331 330 329 334 338 344 350 339 344 134 175 171 169 164 175 171 164 153 161 167 171 170 174 194 186 192 188 179 178 185 190 190 197 190 183 185 188 180 188 191 190 180 173 175 173 172 176 171 169 169 162 159 153 147 135 126 120 112 112 113 110 107 104 98 95 93 93 87 85 82 78 74 73
202 26 187 217 201 205 232 220 242 263 322 55 359 220 235 224 93 328 11 343 339 359 350 351 353 353 344 348 1 8 6 13 10 64 87 141 148 153 156 157 159 159 158 165 171 181 190 202 195 196 188 182 187 188 187 193 195 192 188 190 189 194 193 191 197 189 172 171 178 178 182 175 176 170 170 156 154 151 142 137 133 129 127 124 120 115 109 101 97 95 94 93 87 85 82 79 75
75 216 50 153 224 133 252 23 276 245 159 186 177 252 15 345 355 317 328 15 48 5 15 359 22 18 7 27 25 18 22 25 22 31 68 85 111 135 139 150 158 159 165 168 178 183 193 202 196 195 191 181 190 193 201 202 199 194 191 192 197 200 207 200 194 184 187 181 174 180 182 183 184 170 161 152 156 153 148 142 139 133 134 131 126 122 115 106 105 102 100 100 98 98 94 87 84
150 165 205 209 46 128 90 107 59 50 17 240 86 269 198 246 192 110 60 83 67 30 29 28 23 15 23 31 23 25 24 30 30 35 32 34 50 123 150 156 164 166 170 177 181 186 193 192 192 195 201 197 193 192 188 187 194 197 208 230 220 217 218 214 204 191 189 188 185 185 187 188 173 172 163 160 157 157 152 148 141 137 138 133 129 125 120 117 114 107 106 107 101 99 96 92 87
112 218 179 105 120 47 160 231 61 313 239 246 122 217 176 182 187 164 149 112 78 50 31 27 29 20 33 19 22 22 23 28 35 40 44 40 46 42 29 148 164 168 168 171 178 180 188 191 194 192 195 202 197 189 185 181 184 191 187 195 202 211 224 233 225 204 185 182 191 186 185 178 187 185 172 162 157 156 153 153 145 144 141 140 136 131 126 122 116 106 107 100 99 102 100 95 86
271 335 125 210 190 202 64 115 197 186 213 251 190 269 270 220 175 155 172 154 118 54 25 36 35 25 15 9 16 19 21 26 31 33 35 34 38 45 45 50 44 93 162 173 174 177 186 195 199 199 200 201 198 189 185 185 191 187 194 194 191 193 204 216 219 211 190 195 194 190 182 189 176 171 171 164 162 161 161 157 150 145 145 142 138 131 129 121 113 110 107 100 98 90 84 86 79
68 131 133 24 272 259 174 200 353 222 253 126 216 162 235 191 167 170 156 174 171 102 175 64 46 30 7 13 17 20 19 20 22 30 36 40 41 49 46 45 48 46 50 37 166 186 194 200 202 208 204 196 193 192 185 191 194 195 203 209 194 212 202 199 203 199 200 201 199 190 183 181 183 175 181 174 171 168 165 161 157 149 146 145 142 136 131 123 114 107 106 97 95 88 84 76 75
134 178 178 164 46 341 356 73 216 230 185 205 207 224 221 147 193 155 152 157 154 180 149 92 63 42 31 34 32 24 31 23 22 23 23 26 33 47 51 46 53 49 43 51 51 16 311 243 217 212 203 198 199 197 191 198 190 202 204 206 196 213 211 206 199 196 202 202 197 190 191 185 172 183 174 175 176 173 170 167 160 157 154 152 148 146 142 136 123 116 106 103 99 73 57 61 48
197 203 222 194 156 178 199 218 98 231 196 196 171 227 97 95 155 144 131 128 184 200 195 120 83 74 41 49 43 32 29 29 25 25 24 22 24 34 44 49 47 50 43 36 38 39 33 355 293 265 225 210 204 200 202 200 196 199 201 205 212 219 207 206 206 202 204 203 195 193 189 179 186 185 178 180 179 171 170 168 164 160 158 156 156 152 151 147 139 132 127 123 106 76 46 44 29